GW3840 Weather Reports


time (UTC)temp
F
wind
direction
speed
knots
gust
knots
rain 1hr
in
rain 24hr
in
rain mn
in
humidity
%
barometer
mb
20260902224502 84 71 0.9 1.7 0.00 0.00 0.00 50 1013.3
20260902223954 84 60 4.3 6.1 0.00 0.00 0.00 49 1013.1
20260902223448 83 74 3.5 3.5 0.00 0.00 0.00 49 1013.3
20260902222948 83 135 1.7 2.6 0.00 0.00 0.00 50 1013.1
20260902222446 84 113 1.7 6.1 0.00 0.00 0.00 49 1013.1
20260902221940 85 61 3.5 5.2 0.00 0.00 0.00 47 1013.3
20260902221439 85 86 3.5 6.1 0.00 0.00 0.00 49 1013.0
20260902220935 84 91 1.7 2.6 0.00 0.00 0.00 51 1013.1
20260902220430 85 123 2.6 5.2 0.00 0.00 0.00 47 1013.1
20260902215924 84 208 1.7 6.1 0.00 0.00 0.00 48 1013.3
20260902215420 85 25 2.6 3.5 0.00 0.00 0.00 49 1013.3
20260902214916 86 61 3.5 7.0 0.00 0.00 0.00 47 1013.3
20260902214414 85 161 1.7 2.6 0.00 0.00 0.00 47 1013.2
20260902213909 84 41 1.7 3.5 0.00 0.00 0.00 48 1013.4
20260902213406 85 123 5.2 7.0 0.00 0.00 0.00 47 1013.6
20260902212904 86 58 3.5 3.5 0.00 0.00 0.00 46 1013.3
20260902212400 86 183 1.7 6.1 0.00 0.00 0.00 45 1013.3
20260902211856 84 98 1.7 3.5 0.00 0.00 0.00 46 1013.5
20260902211352 84 165 2.6 5.2 0.00 0.00 0.00 48 1013.5
20260902210846 84 144 1.7 5.2 0.00 0.00 0.00 46 1013.7
20260902210340 84 87 2.6 6.1 0.00 0.00 0.00 48 1013.5
20260902205839 85 84 4.3 7.8 0.00 0.00 0.00 47 1013.7
20260902205333 85 53 1.7 2.6 0.00 0.00 0.00 47 1013.8
20260902204829 84 114 1.7 5.2 0.00 0.00 0.00 46 1013.9
20260902204323 85 56 2.6 3.5 0.00 0.00 0.00 46 1014.0
20260902203819 84 36 3.5 8.7 0.00 0.00 0.00 48 1014.1
20260902203314 87 77 1.7 2.6 0.00 0.00 0.00 46 1013.7
20260902202814 84 238 2.6 5.2 0.00 0.00 0.00 45 1013.9
20260902202311 84 196 0.0 5.2 0.00 0.00 0.00 47 1013.8
20260902201807 84 167 2.6 3.5 0.00 0.00 0.00 51 1013.9
20260902201306 84 112 3.5 6.1 0.00 0.00 0.00 47 1013.9
20260902200801 84 46 2.6 3.5 0.00 0.00 0.00 49 1014.0
20260902200257 84 81 3.5 6.1 0.00 0.00 0.00 44 1014.1
20260902195753 84 42 3.5 5.2 0.00 0.00 0.00 50 1013.9
20260902195252 83 87 3.5 5.2 0.00 0.00 0.00 49 1014.0
20260902194752 83 137 4.3 7.8 0.00 0.00 0.00 50 1014.1
20260902194247 84 4 0.9 2.6 0.00 0.00 0.00 50 1014.3
20260902193743 84 52 2.6 5.2 0.00 0.00 0.00 54 1014.1
20260902193238 85 67 0.9 1.7 0.00 0.00 0.00 50 1014.3
20260902192736 83 73 2.6 6.1 0.00 0.00 0.00 51 1014.5
20260902192235 85 68 2.6 3.5 0.00 0.00 0.00 50 1014.4
20260902191730 83 201 0.9 0.9 0.00 0.00 0.00 50 1014.5
20260902191225 83 81 0.9 3.5 0.00 0.00 0.00 52 1014.5
20260902190720 83 37 0.9 5.2 0.00 0.00 0.00 48 1014.5
20260902190220 82 114 1.7 3.5 0.00 0.00 0.00 50 1014.6
20260902185716 82 9 3.5 5.2 0.00 0.00 0.00 50 1014.7
20260902185212 82 20 3.5 3.5 0.00 0.00 0.00 51 1014.6
20260902184707 82 59 1.7 5.2 0.00 0.00 0.00 53 1014.9
20260902184203 82 39 1.7 1.7 0.00 0.00 0.00 52 1014.7
20260902183658 82 94 0.9 6.1 0.00 0.00 0.00 51 1015.0
20260902183155 82 97 4.3 6.1 0.00 0.00 0.00 51 1014.7
20260902182650 82 208 0.9 2.6 0.00 0.00 0.00 50 1014.9
20260902182147 82 26 3.5 5.2 0.00 0.00 0.00 50 1015.0
20260902181643 82 167 0.9 2.6 0.00 0.00 0.00 50 1014.9
20260902181142 82 116 3.5 5.2 0.00 0.00 0.00 50 1014.7
20260902180641 83 210 2.6 5.2 0.00 0.00 0.00 50 1014.9
20260902180137 81 276 0.0 3.5 0.00 0.00 0.00 52 1014.7
20260902175638 82 143 2.6 5.2 0.00 0.00 0.00 52 1014.9
20260902175134 81 83 3.5 7.0 0.00 0.00 0.00 51 1015.0
20260902174630 82 69 2.6 5.2 0.00 0.00 0.00 47 1015.2
20260902174125 81 103 1.7 2.6 0.00 0.00 0.00 51 1015.0
20260902173620 82 111 5.2 7.8 0.00 0.00 0.00 50 1015.1
20260902173116 81 103 1.7 3.5 0.00 0.00 0.00 54 1015.2
20260902172615 81 38 1.7 2.6 0.00 0.00 0.00 51 1015.3
20260902172109 81 349 1.7 5.2 0.00 0.00 0.00 53 1015.4
20260902171605 80 162 1.7 2.6 0.00 0.00 0.00 54 1015.5
20260902171101 81 113 2.6 7.0 0.00 0.00 0.00 55 1015.3
20260902170556 83 26 0.9 3.5 0.00 0.00 0.00 52 1015.4
20260902170052 82 148 1.7 5.2 0.00 0.00 0.00 51 1015.1
20260902165551 80 140 0.0 3.5 0.00 0.00 0.00 55 1015.1
20260902165045 82 139 1.7 2.6 0.00 0.00 0.00 54 1015.0
20260902164540 79 88 1.7 3.5 0.00 0.00 0.00 58 1015.3
20260902164034 80 113 2.6 5.2 0.00 0.00 0.00 56 1014.9
20260902163530 78 323 1.7 5.2 0.00 0.00 0.00 59 1015.2
20260902163027 81 89 1.7 2.6 0.00 0.00 0.00 54 1015.2
20260902162521 79 77 3.5 6.1 0.00 0.00 0.00 58 1015.1
20260902162017 80 71 3.5 5.2 0.00 0.00 0.00 54 1015.1
20260902161511 77 145 1.7 3.5 0.00 0.00 0.00 59 1015.3
20260902161007 79 109 2.6 3.5 0.00 0.00 0.00 56 1015.3
20260902160503 81 104 3.5 5.2 0.00 0.00 0.00 56 1015.3
20260902160001 79 77 3.5 3.5 0.00 0.00 0.00 57 1015.1
20260902155456 78 146 2.6 6.1 0.00 0.00 0.00 57 1014.9
20260902154950 78 92 2.6 6.1 0.00 0.00 0.00 58 1014.9
20260902154446 78 52 1.7 3.5 0.00 0.00 0.00 61 1014.7
20260902153945 77 139 2.6 2.6 0.00 0.00 0.00 60 1015.0
20260902153438 75 74 0.9 1.7 0.00 0.00 0.00 66 1015.3
20260902152933 78 20 0.9 5.2 0.00 0.00 0.00 64 1015.2
20260902152424 77 105 1.7 1.7 0.00 0.00 0.00 67 1015.2
20260902151919 76 99 0.9 1.7 0.00 0.00 0.00 64 1015.3
20260902151415 77 19 2.6 2.6 0.00 0.00 0.00 64 1015.2
20260902150909 78 61 3.5 3.5 0.00 0.00 0.00 62 1015.2
20260902150405 78 199 0.9 1.7 0.00 0.00 0.00 60 1015.3
20260902145904 78 87 2.6 3.5 0.00 0.00 0.00 65 1015.3
20260902145400 77 93 1.7 1.7 0.00 0.00 0.00 66 1015.5
20260902144854 75 93 1.7 1.7 0.00 0.00 0.00 71 1015.6
20260902144351 75 17 1.7 1.7 0.00 0.00 0.00 72 1015.6
20260902143845 73 105 0.9 1.7 0.00 0.00 0.00 78 1015.7
20260902143339 74 277 0.9 0.9 0.00 0.00 0.00 76 1015.9
20260902142836 73 102 0.9 0.9 0.00 0.00 0.00 76 1015.8
20260902142332 72 104 0.9 1.7 0.00 0.00 0.00 80 1015.6
20260902141826 71 145 0.0 0.0 0.00 0.00 0.00 82 1015.6
20260902141322 72 79 0.9 0.9 0.00 0.00 0.00 81 1015.5
20260902140821 72 66 0.0 0.9 0.00 0.00 0.00 76 1015.5
20260902140317 72 187 0.0 0.9 0.00 0.00 0.00 75 1015.7
20260902135816 72 97 0.9 1.7 0.00 0.00 0.00 74 1015.4
20260902135312 72 54 0.0 0.9 0.00 0.00 0.00 76 1015.5
20260902134811 72 159 0.0 0.0 0.00 0.00 0.00 78 1015.4
20260902134306 72 211 0.0 0.9 0.00 0.00 0.00 76 1015.4
20260902133801 72 133 0.0 1.7 0.00 0.00 0.00 73 1015.3
20260902133301 72 188 0.0 0.0 0.00 0.00 0.00 78 1015.6
20260902132756 73 7 0.9 1.7 0.00 0.00 0.00 77 1015.5
20260902132252 73 120 0.0 0.0 0.00 0.00 0.00 79 1015.5
20260902131747 71 163 0.0 0.0 0.00 0.00 0.00 81 1015.6
20260902131243 71 43 0.0 0.9 0.00 0.00 0.00 82 1015.5
20260902130742 71 127 0.0 0.0 0.00 0.00 0.00 83 1015.5
20260902130239 71 33 0.9 0.9 0.00 0.00 0.00 82 1015.5
20260902125734 70 131 0.9 1.7 0.00 0.00 0.00 85 1015.4
20260902125230 71 58 0.9 1.7 0.00 0.00 0.00 85 1015.4
20260902124726 71 98 0.0 1.7 0.00 0.00 0.00 84 1015.3
20260902124221 71 176 0.0 0.0 0.00 0.00 0.00 85 1015.4
20260902123716 69 88 0.9 0.9 0.00 0.00 0.00 89 1015.5
20260902123207 67 143 0.0 0.0 0.00 0.00 0.00 95 1015.5
20260902122705 66 175 0.0 0.0 0.00 0.00 0.00 95 1015.4
20260902122202 65 164 0.0 0.0 0.00 0.00 0.00 95 1015.2
20260902121656 64 164 0.0 0.0 0.00 0.00 0.00 95 1015.2
20260902121151 63 166 0.0 0.0 0.00 0.00 0.00 95 1015.4
20260902120647 63 116 0.9 0.9 0.00 0.00 0.00 95 1015.2
20260902120143 63 104 0.0 0.9 0.00 0.00 0.00 96 1015.4
20260902115638 63 130 0.0 0.9 0.00 0.00 0.00 96 1015.5
20260902115134 63 155 0.0 0.0 0.00 0.00 0.00 96 1015.4
20260902114629 63 185 0.0 0.0 0.00 0.00 0.00 96 1015.3
20260902114129 63 186 0.0 0.0 0.00 0.00 0.00 96 1015.3
20260902113624 63 186 0.0 0.0 0.00 0.00 0.00 96 1015.5
20260902113119 63 186 0.0 0.0 0.00 0.00 0.00 96 1015.6
20260902112609 63 186 0.0 0.0 0.00 0.00 0.00 96 1015.3
20260902112106 63 172 0.0 0.0 0.00 0.00 0.00 96 1015.4
20260902111602 63 169 0.0 0.0 0.00 0.00 0.00 96 1015.5
20260902111057 62 158 0.0 0.0 0.00 0.00 0.00 96 1015.3
20260902110553 62 157 0.0 0.0 0.00 0.00 0.00 96 1015.2
20260902110049 63 189 0.0 0.0 0.00 0.00 0.00 96 1015.2
20260902105543 63 191 0.0 0.0 0.00 0.00 0.00 95 1015.1
20260902105043 64 203 0.0 0.0 0.00 0.00 0.00 95 1015.1
20260902104538 64 204 0.0 0.0 0.00 0.00 0.00 95 1015.2
20260902104033 64 204 0.0 0.0 0.00 0.00 0.00 94 1015.1
20260902103529 64 204 0.0 0.0 0.00 0.00 0.00 94 1015.2
20260902103024 64 205 0.0 0.0 0.00 0.00 0.00 93 1015.4
20260902102521 64 167 0.0 0.0 0.00 0.00 0.00 93 1015.4
20260902102017 65 185 0.0 0.0 0.00 0.00 0.00 93 1015.4
20260902101512 65 141 0.0 0.0 0.00 0.00 0.00 93 1015.3
20260902101010 65 220 0.0 0.0 0.00 0.00 0.00 93 1015.6
20260902100506 66 241 0.0 0.0 0.00 0.00 0.00 91 1015.6
20260902100000 65 187 0.0 0.0 0.00 0.00 0.00 91 1015.5
20260902095500 65 133 0.0 0.9 0.00 0.00 0.00 91 1015.5
20260902094959 65 172 0.0 0.0 0.00 0.00 0.00 92 1015.7
20260902094455 65 136 0.9 0.9 0.00 0.00 0.00 92 1015.7
20260902093955 65 181 0.0 0.0 0.00 0.00 0.00 93 1015.7
20260902093445 65 223 0.0 0.0 0.00 0.00 0.00 93 1015.8
20260902092944 64 201 0.0 0.0 0.00 0.00 0.00 93 1015.6
20260902092440 65 201 0.0 0.0 0.00 0.00 0.00 92 1015.7
20260902091940 65 184 0.0 0.0 0.00 0.00 0.00 91 1015.5
20260902091435 65 134 0.0 0.0 0.00 0.00 0.00 91 1015.5
20260902090932 66 184 0.0 0.0 0.00 0.00 0.00 89 1015.6
20260902090432 67 184 0.0 0.0 0.00 0.00 0.00 88 1015.7
20260902085930 67 65 0.9 0.9 0.00 0.00 0.00 87 1015.6
20260902085426 67 121 1.7 1.7 0.00 0.00 0.00 87 1015.6
20260902084921 67 136 0.9 0.9 0.00 0.00 0.00 87 1015.8
20260902084418 67 165 0.9 1.7 0.00 0.00 0.00 87 1015.6
20260902083913 67 193 0.0 0.0 0.00 0.00 0.00 89 1015.5
20260902083413 67 188 0.0 0.0 0.00 0.00 0.00 89 1015.5
20260902082908 67 188 0.0 0.0 0.00 0.00 0.00 89 1015.7
20260902082403 67 199 0.0 0.0 0.00 0.00 0.00 88 1015.4
20260902081900 66 174 0.0 0.0 0.00 0.00 0.00 90 1015.3
20260902081355 66 190 0.0 0.0 0.00 0.00 0.00 90 1015.1
20260902080850 66 192 0.0 0.0 0.00 0.00 0.00 89 1015.1
20260902080347 67 193 0.0 0.0 0.00 0.00 0.00 88 1015.1
20260902075846 67 189 0.0 0.0 0.00 0.00 0.00 87 1014.9
20260902075343 67 178 0.0 0.0 0.00 0.00 0.00 86 1014.5
20260902074843 68 178 0.0 0.0 0.00 0.00 0.00 85 1014.5
20260902074338 69 177 0.0 0.0 0.00 0.00 0.00 83 1014.5
20260902073833 70 154 0.0 0.0 0.00 0.00 0.00 81 1014.2
20260902073330 70 95 0.9 1.7 0.00 0.00 0.00 80 1014.3
20260902072825 70 20 0.9 1.7 0.00 0.00 0.00 80 1014.1
20260902072320 69 44 1.7 1.7 0.00 0.00 0.00 81 1014.3
20260902071817 69 189 0.0 0.0 0.00 0.00 0.00 81 1014.2
20260902071312 69 345 0.0 0.9 0.00 0.00 0.00 81 1014.1
20260902070808 69 330 0.0 0.9 0.00 0.00 0.00 82 1014.3
20260902070308 69 164 0.0 0.0 0.00 0.00 0.00 83 1014.1
20260902065807 69 143 0.0 0.0 0.00 0.00 0.00 82 1014.3
20260902065302 70 143 0.0 0.0 0.00 0.00 0.00 82 1014.3
20260902064757 69 179 0.0 0.9 0.00 0.00 0.00 81 1014.5
20260902064253 69 184 0.0 0.9 0.00 0.00 0.00 83 1014.5
20260902063749 70 152 0.0 0.0 0.00 0.00 0.00 84 1014.4
20260902063243 70 50 0.0 0.9 0.00 0.00 0.00 84 1014.6
20260902062743 70 47 0.9 1.7 0.00 0.00 0.00 85 1014.7
20260902062238 70 21 2.6 3.5 0.00 0.00 0.00 84 1014.9
20260902061737 69 281 0.9 1.7 0.00 0.00 0.00 86 1014.9
20260902061232 70 92 0.9 1.7 0.00 0.00 0.00 86 1014.9
20260902060730 70 96 0.9 1.7 0.00 0.00 0.00 86 1014.5
20260902060225 70 11 1.7 1.7 0.00 0.00 0.00 85 1014.7
20260902055720 70 56 0.9 1.7 0.00 0.00 0.00 85 1014.5
20260902055216 70 75 0.9 1.7 0.00 0.00 0.00 85 1014.6
20260902054711 70 3 0.0 1.7 0.00 0.00 0.00 87 1015.0
20260902054207 70 198 0.0 0.0 0.00 0.00 0.00 88 1015.1
20260902053702 70 276 0.9 1.7 0.00 0.00 0.00 88 1015.3
20260902053202 68 338 0.9 1.7 0.00 0.00 0.00 91 1015.4
20260902052701 67 190 0.0 0.0 0.00 0.00 0.00 91 1015.5
20260902052157 67 177 0.0 0.0 0.00 0.00 0.00 90 1015.5
20260902051656 67 163 0.0 0.0 0.00 0.00 0.00 90 1015.4
20260902051151 67 163 0.0 0.0 0.00 0.00 0.00 90 1015.5
20260902050651 67 160 0.0 0.0 0.00 0.00 0.00 89 1015.5
20260902050146 68 160 0.0 0.0 0.00 0.00 0.00 89 1015.5
20260902045641 68 159 0.0 0.0 0.00 0.00 0.00 89 1015.6
20260902045137 68 170 0.0 0.0 0.00 0.00 0.00 89 1015.7
20260902044632 68 154 0.0 0.0 0.00 0.00 0.00 88 1015.8
20260902044128 68 152 0.0 0.0 0.00 0.00 0.00 88 1016.0
20260902043623 68 143 0.0 0.0 0.00 0.00 0.00 88 1015.9
20260902043118 68 185 0.0 0.0 0.00 0.00 0.00 88 1015.9
20260902042617 68 186 0.0 0.0 0.00 0.00 0.00 87 1015.9
20260902042113 69 186 0.0 0.0 0.00 0.00 0.00 87 1016.0
20260902041612 69 186 0.0 0.0 0.00 0.00 0.00 87 1016.0
20260902041108 69 183 0.0 0.0 0.00 0.00 0.00 86 1015.8
20260902040607 69 225 0.0 0.0 0.00 0.00 0.00 86 1016.1
20260902035600 69 163 0.0 0.0 0.00 0.00 0.00 86 1015.9
20260902035056 69 190 0.0 0.0 0.00 0.00 0.00 86 1016.1
20260902034555 69 186 0.0 0.0 0.00 0.00 0.00 85 1016.1
20260902034054 69 181 0.0 0.0 0.00 0.00 0.00 85 1015.9
20260902033554 69 181 0.0 0.0 0.00 0.00 0.00 84 1016.0
20260902033049 69 181 0.0 0.0 0.00 0.00 0.00 84 1016.0
20260902032548 69 180 0.0 0.0 0.00 0.00 0.00 83 1016.0
20260902032043 69 171 0.0 0.0 0.00 0.00 0.00 82 1015.9
20260902031537 69 168 0.0 0.0 0.00 0.00 0.00 82 1016.1
20260902031034 70 162 0.0 0.0 0.00 0.00 0.00 82 1015.9
20260902030534 70 217 0.0 0.0 0.00 0.00 0.00 81 1016.1
20260902030034 70 216 0.0 0.0 0.00 0.00 0.00 80 1016.1
20260902025528 70 216 0.0 0.0 0.00 0.00 0.00 80 1016.1
20260902025024 70 226 0.0 0.0 0.00 0.00 0.00 81 1016.0
20260902024519 69 190 0.0 0.0 0.00 0.00 0.00 80 1016.0
20260902024019 70 189 0.0 0.0 0.00 0.00 0.00 81 1015.9
20260902023510 70 189 0.0 0.0 0.00 0.00 0.00 80 1015.9
20260902023009 70 185 0.0 0.0 0.00 0.00 0.00 80 1015.7
20260902022504 70 139 0.0 0.0 0.00 0.00 0.00 80 1015.6
20260902022000 70 199 0.0 0.0 0.00 0.00 0.00 80 1015.7
20260902021455 70 200 0.0 0.0 0.00 0.00 0.00 79 1015.7
20260902020950 70 200 0.0 0.0 0.00 0.00 0.00 79 1015.5
20260902020446 71 200 0.0 0.0 0.00 0.00 0.00 78 1015.6
20260902015942 71 200 0.0 0.0 0.00 0.00 0.00 77 1015.6
20260902015437 71 200 0.0 0.0 0.00 0.00 0.00 77 1015.5
20260902014932 71 227 0.0 0.0 0.00 0.00 0.00 75 1015.5
20260902014429 71 200 0.0 0.0 0.00 0.00 0.00 80 1015.6
20260902013928 71 199 0.0 0.0 0.00 0.00 0.00 80 1015.7
20260902013424 72 199 0.0 0.0 0.00 0.00 0.00 79 1015.6
20260902012919 72 192 0.0 0.0 0.00 0.00 0.00 79 1015.7
20260902012414 72 192 0.0 0.0 0.00 0.00 0.00 78 1015.7
20260902011909 72 191 0.0 0.0 0.00 0.00 0.00 77 1015.6
20260902011404 72 172 0.0 0.0 0.00 0.00 0.00 76 1015.5
20260902010859 72 143 0.0 0.0 0.00 0.00 0.00 76 1015.5
20260902010353 72 212 0.0 0.0 0.00 0.00 0.00 75 1015.6
20260902005852 72 213 0.0 0.0 0.00 0.00 0.00 73 1015.5
20260902005346 72 211 0.0 0.0 0.00 0.00 0.00 73 1015.3
20260902004842 72 211 0.0 0.0 0.00 0.00 0.00 74 1015.2
20260902004336 72 208 0.0 0.0 0.00 0.00 0.00 72 1015.1
20260902003832 73 207 0.0 0.0 0.00 0.00 0.00 70 1015.1
20260902003327 73 207 0.0 0.0 0.00 0.00 0.00 71 1015.1
20260902002822 73 207 0.0 0.0 0.00 0.00 0.00 71 1015.0
20260902002321 74 209 0.0 0.0 0.00 0.00 0.00 71 1015.2
20260902001817 74 190 0.0 0.0 0.00 0.00 0.00 69 1015.2
20260902001312 74 190 0.0 0.0 0.00 0.00 0.00 68 1015.2
20260902000807 75 171 0.0 0.9 0.00 0.00 0.00 67 1015.2
20260902000307 75 167 0.0 0.0 0.00 0.00 0.00 65 1015.0
20260901235802 76 188 0.0 0.0 0.00 0.00 0.00 64 1015.5
20260901235257 76 238 0.0 0.9 0.00 0.00 0.00 63 1015.7
20260901234756 76 229 0.0 0.9 0.00 0.00 0.00 63 1015.6
20260901234246 76 236 0.0 0.9 0.00 0.00 0.00 62 1015.6
20260901233740 77 224 0.9 1.7 0.00 0.00 0.00 61 1015.7
20260901233237 77 227 0.0 0.0 0.00 0.00 0.00 61 1015.6
20260901232736 77 221 0.9 0.9 0.00 0.00 0.00 60 1015.5
20260901232232 77 318 0.9 0.9 0.00 0.00 0.00 59 1015.7
20260901231728 77 224 0.0 0.9 0.00 0.00 0.00 58 1015.7
20260901231224 78 233 0.9 1.7 0.00 0.00 0.00 58 1015.9
20260901230719 78 234 0.9 1.7 0.00 0.00 0.00 57 1015.8
20260901230213 78 241 1.7 1.7 0.00 0.00 0.00 56 1016.0
20260901225708 78 276 1.7 1.7 0.00 0.00 0.00 55 1016.0
20260901225203 78 269 1.7 2.6 0.00 0.00 0.00 54 1016.1